This is the latest recevied weather packets stored in our database for station/object KB1YTR-1. If no packets are shown the sender has not sent any weather packets the latest 10 day(s).
| Time | Temp. | Humidity | Pressure | Rain* | Wind** | Luminosity | Snow |
|---|---|---|---|---|---|---|---|
| 1777674128 | 5.56° C | 49% | 1017.1 hPa | 0 mm | - | - | - |
| 1777673375 | 5° C | 51% | 1017.3 hPa | 0 mm | - | - | - |
| 1777672537 | 5.56° C | 49% | 1017.2 hPa | 0 mm | - | - | - |
| 1777671702 | 6.11° C | 49% | 1017.4 hPa | 0 mm | - | - | - |
| 1777670948 | 5.56° C | 52% | 1017.4 hPa | 0 mm | - | - | - |
| 1777670097 | 5.56° C | 50% | 1017.4 hPa | 0 mm | - | - | - |
| 1777669352 | 5.56° C | 51% | 1017.5 hPa | 0 mm | - | - | - |
| 1777668545 | 5.56° C | 53% | 1017.4 hPa | 0 mm | - | - | - |
| 1777667721 | 6.11° C | 52% | 1017.6 hPa | 0 mm | - | - | - |
| 1777666902 | 6.11° C | 50% | 1017.6 hPa | 0 mm | - | - | - |
| 1777666012 | 5.56° C | 51% | 1017.7 hPa | 0 mm | - | - | - |
| 1777665252 | 5.56° C | 54% | 1017.7 hPa | 0 mm | - | - | - |
| 1777664407 | 5.56° C | 51% | 1017.6 hPa | 0 mm | - | - | - |
| 1777663512 | 5.56° C | 52% | 1017.6 hPa | 0 mm | - | - | - |
| 1777662757 | 5.56° C | 54% | 1017.6 hPa | 0 mm | - | - | - |
| 1777661972 | 5° C | 54% | 1018 hPa | 0 mm | - | - | - |
| 1777661155 | 5° C | 54% | 1017.6 hPa | 0 mm | - | - | - |
| 1777660267 | 5° C | 55% | 1017.8 hPa | 0 mm | - | - | - |
| 1777659537 | 3.89° C | 60% | 1017.9 hPa | 0 mm | - | - | - |
| 1777658652 | 3.33° C | 58% | 1018 hPa | 0 mm | - | - | - |
| 1777657935 | 3.89° C | 60% | 1018 hPa | 0 mm | - | - | - |
| 1777657047 | 2.78° C | 60% | 1018.1 hPa | 0 mm | - | - | - |
| 1777656267 | 3.89° C | 58% | 1018.2 hPa | 0 mm | - | - | - |
| 1777655522 | 3.89° C | 59% | 1018.1 hPa | 0 mm | - | - | - |
| 1777654627 | 2.78° C | 62% | 1018.2 hPa | 0 mm | - | - | - |
* Rain latest hour (hover to see other rain measurements)
** Current wind speed in m/s (hover to see current wind gust speed)